This demonstration page uses our WeatherBlox Daily Observations layout. Learn more.

Left ArrowRight Arrow

Hourly Observations for February 23, 2016

Temp ( °F °C ) Dew Point ( °F °C ) Humidity (%) Winds ( mph kmh ) Pressure ( in mb ) Visibility ( mi km ) Precip ( " mm )
12:54 am 00:54 Cloudy 39 3.9 32 0 76 76 SSE 8 13 30.06 1018 10 16 0.00 0.00
1:54 am 01:54 Clear 35 1.7 30 -1.1 82 82 SSW 3 6 30.06 1018 10 16 0.00 0.00
2:54 am 02:54 Partly Cloudy 36 2.2 30 -1.1 79 79 Calm 30.06 1018 10 16 0.00 0.00
3:54 am 03:54 Cloudy with Light Rain 37 2.8 32 0 82 82 S 3 6 30.06 1018 10 16 0.00 0.03
4:54 am 04:54 Mostly Cloudy 35 1.7 32 0 89 89 S 3 6 30.08 1019 10 16 0.00 0.03
5:54 am 05:54 Clear 34 1.1 30 -1.1 85 85 Calm 30.08 1019 10 16 0.00 0.00
6:54 am 06:54 Clear 31 -0.6 28 -2.2 89 89 Calm 30.08 1019 10 16 0.00 0.00
7:54 am 07:54 Mostly Sunny 30 -1.1 27 -2.8 88 88 Calm 30.11 1020 8 13 0.00 0.00
8:54 am 08:54 Sunny 35 1.7 32 0 89 89 Calm 30.11 1020 7 11 0.00 0.00
9:54 am 09:54 Sunny 43 6.1 32 0 65 65 NNW 15 24 30.10 1019 10 16 0.00 0.00
10:54 am 10:54 Sunny 47 8.3 30 -1.1 52 52 N 18 30 30.09 1019 10 16 0.00 0.00
11:54 am 11:54 Sunny 49 9.4 31 -0.6 50 50 N 16 26 30.09 1019 10 16 0.00 0.00
12:54 pm 12:54 Sunny 49 9.4 31 -0.6 50 50 N 18 30 30.08 1019 10 16 0.00 0.00
1:54 pm 13:54 Partly Cloudy 50 10 28 -2.2 43 43 N 20 31 30.07 1018 10 16 0.00 0.00
2:54 pm 14:54 Partly Cloudy 51 10.6 27 -2.8 39 39 N 22 35 30.05 1018 10 16 0.00 0.00
3:54 pm 15:54 Sunny 49 9.4 21 -6.1 33 33 N 24 39 30.05 1018 10 16 0.00 0.00
4:54 pm 16:54 Sunny 47 8.3 23 -5 39 39 N 23 37 30.06 1018 10 16 0.00 0.00
5:54 pm 17:54 Sunny 43 6.1 24 -4.4 47 47 N 18 30 30.09 1019 10 16 0.00 0.00
6:54 pm 18:54 Clear 38 3.3 25 -3.9 60 60 N 12 19 30.13 1020 10 16 0.00 0.00
7:54 pm 19:54 Clear 36 2.2 26 -3.3 67 67 N 9 15 30.13 1020 10 16 0.00 0.00
8:54 pm 20:54 Clear 32 0 25 -3.9 75 75 N 8 13 30.13 1020 10 16 0.00 0.00
9:54 pm 21:54 Clear 27 -2.8 23 -5 85 85 N 7 11 30.14 1021 10 16 0.00 0.00
10:54 pm 22:54 Clear 29 -1.7 25 -3.9 85 85 N 10 17 30.13 1020 10 16 0.00 0.00
11:54 pm 23:54 Clear 28 -2.2 25 -3.9 88 88 NNW 6 9 30.11 1020 10 16 0.00 0.00

Powered by AerisWeather